Location: Gauravaram
(16.6995°N, 80.5417°E)
Time: 21:51:09
(UTC+00:00)

Cosmos 2150 Rocket - Pass Details

Date: 03 August 2024
Orbit: 747 x 804 km, 74.0° (Epoch: 14 September)

Event Time Altitude Azimuth Distance (km) Brightness Sun altitude
Rises 23:36:31 0° 345° (NNW) 3,249 7.3 -10.4°
Reaches altitude 10° 23:38:55 10° 345° (NNW) 2,311 6.6 -9.9°
Maximum altitude 23:44:09 83° 258° (WSW) 770 4.0 -8.7°
Drops below altitude 10° 23:49:19 10° 170° (S) 2,273 6.4 -7.6°
Sets 23:51:39 0° 169° (S) 3,190 7.1 -7.0°
